Date String (YYYY-MM-DD hh:mm:ss) UTC,Instrument flags,absolute air pressure of the measurement (hPa),sample flow rate (lpm),inlet stack bypass flow (lpm),air temperature of the measurement (°C),ambient temperature measured by the external sensor (°C),aerosol sample conditioner tube jacket temperature (°C),OPC LED temperature (°C),internal box temperature (°C),relative humidity of the measurement (%),span deviation,mass concentration of particles derived from Lorenz-Mie calculation of OPC scattering (μg/m³),mass concentration of particles derived from Lorenz-Mie calculation of OPC scattering (μg/m³),mass concentration of particles derived from Lorenz-Mie calculation of OPC scattering (μg/m³)
DateTimeUTC,F1_M11,P_M11,Q1_M11,Q2_M11,T1_M11,T2_M11,T3_M11,T4_M11,T5_M11,U1_M11,ZSPAN_M11,X0_M11,X2_M11,X1_M11
2024-02-18 06:00:00,SystemResetWarning,0830.0,4.99,000.00,018.3,017.6,000.0,026.9,020.0,13.1,0000.0,0008.01,0003.77,0003.50
2024-02-18 06:01:00,SystemResetWarning,0830.1,5.00,000.00,018.3,017.8,000.0,027.0,020.2,13.0,0000.0,0007.82,0003.73,0003.45
2024-02-18 06:02:00,SystemResetWarning,0830.1,5.02,000.00,018.5,018.6,000.0,027.1,020.6,12.8,0000.0,0007.67,0003.72,0003.43
2024-02-18 06:03:00,SystemResetWarning,0830.1,5.00,000.00,018.7,018.9,000.0,027.1,020.8,12.5,0000.0,0007.76,0003.76,0003.46
2024-02-18 06:04:00,SystemResetWarning,0830.1,4.99,000.00,018.7,018.8,000.0,027.0,020.6,12.3,0000.0,0007.72,0003.75,0003.47
2024-02-18 06:05:00,SystemResetWarning,0830.0,5.01,000.00,018.7,018.6,000.0,027.0,020.4,12.2,0000.0,0007.66,0003.74,0003.46
2024-02-18 06:06:00,SystemResetWarning,0830.0,5.01,000.00,018.6,018.4,000.0,027.0,020.3,11.9,0000.0,0007.59,0003.70,0003.43
2024-02-18 06:07:00,SystemResetWarning,0830.0,5.01,000.00,018.6,018.3,000.0,026.9,020.2,11.3,0000.0,0006.79,0003.61,0003.36
2024-02-18 06:08:00,SystemResetWarning,0830.0,5.00,000.00,018.6,018.1,000.0,026.9,020.2,11.1,0000.0,0005.68,0003.57,0003.33
2024-02-18 06:09:00,SystemResetWarning,0830.0,5.00,000.00,018.5,018.0,000.0,026.9,020.1,11.3,0000.0,0004.99,0003.48,0003.25
2024-02-18 06:10:00,SystemResetWarning,0830.0,5.00,000.00,018.5,017.9,000.0,026.9,020.1,11.3,0000.0,0004.43,0003.38,0003.17
2024-02-18 06:11:00,SystemResetWarning,0830.0,5.00,000.00,018.5,017.8,000.0,026.9,020.0,10.6,0000.0,0004.28,0003.31,0003.12
2024-02-18 06:12:00,SystemResetWarning,0830.0,5.01,000.00,018.4,017.8,000.0,026.9,020.0,10.6,0000.0,0004.15,0003.26,0003.07
2024-02-18 06:13:00,SystemResetWarning,0830.0,5.00,000.00,018.4,017.7,000.0,026.9,020.0,10.9,0000.0,0003.92,0003.18,0002.93
2024-02-18 06:14:00,SystemResetWarning,0830.0,4.98,000.00,018.4,017.7,000.0,026.9,020.0,10.9,0000.0,0003.59,0002.99,0002.72
2024-02-18 06:15:00,SystemResetWarning,0830.0,5.01,000.00,018.3,017.6,000.0,026.9,020.0,11.0,0000.0,0003.35,0002.80,0002.54
2024-02-18 06:16:00,SystemResetWarning,0830.0,5.00,000.00,018.3,017.6,000.0,026.9,020.0,11.2,0000.0,0003.12,0002.60,0002.33
2024-02-18 06:17:00,SystemResetWarning,0830.0,4.99,000.00,018.3,017.6,000.0,026.9,020.0,11.2,0000.0,0002.87,0002.40,0002.17
2024-02-18 06:18:00,SystemResetWarning,0830.0,5.00,000.00,018.3,017.6,000.0,026.9,020.0,11.1,0000.0,0002.75,0002.28,0002.05
2024-02-18 06:19:00,SystemResetWarning,0830.0,5.01,000.00,018.4,018.1,000.0,027.0,020.3,11.2,0000.0,0002.53,0002.10,0001.89
2024-02-18 06:20:00,SystemResetWarning,0830.0,5.00,000.00,018.6,018.8,000.0,027.1,020.8,11.2,0000.0,0002.34,0001.93,0001.73
2024-02-18 06:21:00,SystemResetWarning,0830.0,4.98,000.00,018.7,018.9,000.0,027.0,020.8,11.1,0000.0,0002.11,0001.76,0001.61
2024-02-18 06:22:00,SystemResetWarning,0830.1,5.00,000.00,018.7,018.8,000.0,027.0,020.6,11.2,0000.0,0001.92,0001.61,0001.48
2024-02-18 06:23:00,SystemResetWarning,0830.0,5.01,000.00,018.7,018.6,000.0,027.0,020.4,11.2,0000.0,0001.83,0001.52,0001.39
2024-02-18 06:24:00,SystemResetWarning,0830.0,5.00,000.00,018.6,018.4,000.0,026.9,020.3,11.2,0000.0,0001.78,0001.46,0001.32
2024-02-18 06:25:00,SystemResetWarning,0830.0,5.00,000.00,018.6,018.3,000.0,026.9,020.2,11.3,0000.0,0001.71,0001.41,0001.27
2024-02-18 06:26:00,SystemResetWarning,0830.0,5.00,000.00,018.6,018.1,000.0,026.9,020.2,11.3,0000.0,0001.67,0001.37,0001.24
2024-02-18 06:27:00,SystemResetWarning,0830.0,5.00,000.00,018.5,018.0,000.0,026.9,020.1,11.4,0000.0,0001.64,0001.34,0001.23
2024-02-18 06:28:00,SystemResetWarning,0830.1,5.00,000.00,018.5,017.9,000.0,026.9,020.1,11.4,0000.0,0001.69,0001.35,0001.23
2024-02-18 06:29:00,SystemResetWarning,0830.1,5.00,000.00,018.5,017.8,000.0,026.9,020.0,11.5,0000.0,0001.70,0001.34,0001.21
2024-02-18 06:30:00,SystemResetWarning,0830.1,5.00,000.00,018.4,017.8,000.0,026.9,020.0,11.5,0000.0,0001.73,0001.34,0001.20
2024-02-18 06:31:00,SystemResetWarning,0830.1,4.99,000.00,018.4,017.7,000.0,026.9,020.0,11.5,0000.0,0001.75,0001.38,0001.25
2024-02-18 06:32:00,SystemResetWarning,0830.1,5.01,000.00,018.4,017.7,000.0,026.9,020.0,11.5,0000.0,0002.39,0001.44,0001.28
2024-02-18 06:33:00,SystemResetWarning,0830.1,5.01,000.00,018.4,017.7,000.0,026.9,020.0,11.5,0000.0,0003.16,0001.51,0001.31
2024-02-18 06:34:00,SystemResetWarning,0830.1,5.00,000.00,018.3,017.6,000.0,026.9,020.0,11.5,0000.0,0003.23,0001.54,0001.33
2024-02-18 06:35:00,SystemResetWarning,0830.0,5.00,000.00,018.3,017.6,000.0,026.9,020.0,11.4,0000.0,0003.21,0001.54,0001.34
2024-02-18 06:36:00,SystemResetWarning,0830.0,5.00,000.00,018.3,017.6,000.0,026.9,020.0,11.3,0000.0,0003.29,0001.57,0001.35
2024-02-18 06:37:00,SystemResetWarning,0830.0,5.00,000.00,018.4,018.0,000.0,027.0,020.3,11.2,0000.0,0003.41,0001.64,0001.38
2024-02-18 06:38:00,SystemResetWarning,0830.1,5.00,000.00,018.6,018.8,000.0,027.1,020.8,11.1,0000.0,0003.41,0001.65,0001.39
2024-02-18 06:39:00,SystemResetWarning,0830.0,5.00,000.00,018.7,018.9,000.0,027.1,020.8,11.0,0000.0,0003.39,0001.66,0001.41
2024-02-18 06:40:00,SystemResetWarning,0830.0,4.99,000.00,018.7,018.8,000.0,027.0,020.6,11.0,0000.0,0003.47,0001.67,0001.41
2024-02-18 06:41:00,SystemResetWarning,0830.0,5.00,000.00,018.7,018.6,000.0,027.0,020.4,11.0,0000.0,0003.46,0001.67,0001.42
2024-02-18 06:42:00,SystemResetWarning,0830.0,5.01,000.00,018.6,018.4,000.0,026.9,020.2,11.0,0000.0,0003.55,0001.70,0001.42
2024-02-18 06:43:00,SystemResetWarning,0830.0,5.00,000.00,018.6,018.3,000.0,026.9,020.1,11.0,0000.0,0003.29,0001.71,0001.43
2024-02-18 06:44:00,SystemResetWarning,0830.0,4.99,000.00,018.5,018.1,000.0,026.9,020.1,11.0,0000.0,0002.32,0001.68,0001.42
2024-02-18 06:45:00,SystemResetWarning,0830.0,5.00,000.00,018.5,018.0,000.0,026.9,020.1,11.0,0000.0,0002.28,0001.66,0001.41
2024-02-18 06:46:00,SystemResetWarning,0830.0,5.00,000.00,018.5,017.9,000.0,026.9,020.0,11.0,0000.0,0002.28,0001.66,0001.41
2024-02-18 06:47:00,SystemResetWarning,0830.0,5.00,000.00,018.4,017.8,000.0,026.9,020.0,11.0,0000.0,0002.24,0001.64,0001.39
2024-02-18 06:48:00,SystemResetWarning,0830.0,5.00,000.00,018.4,017.8,000.0,026.9,020.0,10.9,0000.0,0002.12,0001.57,0001.37
2024-02-18 06:49:00,SystemResetWarning,0830.0,5.01,000.00,018.4,017.7,000.0,026.9,020.0,10.8,0000.0,0002.10,0001.55,0001.35
2024-02-18 06:50:00,SystemResetWarning,0830.0,5.00,000.00,018.4,017.6,000.0,026.9,020.0,10.8,0000.0,0002.06,0001.52,0001.32
2024-02-18 06:51:00,SystemResetWarning,0830.0,4.99,000.00,018.4,017.6,000.0,026.9,020.0,10.5,0000.0,0002.08,0001.53,0001.31
2024-02-18 06:52:00,SystemResetWarning,0830.0,4.99,000.00,018.3,017.6,000.0,026.9,020.0,10.6,0000.0,0002.02,0001.50,0001.28
2024-02-18 06:53:00,SystemResetWarning,0830.1,5.00,000.00,018.3,017.5,000.0,026.9,020.0,10.8,0000.0,0001.92,0001.44,0001.25
2024-02-18 06:54:00,SystemResetWarning,0830.0,5.01,000.00,018.4,017.9,000.0,027.0,020.2,10.9,0000.0,0001.83,0001.39,0001.21
2024-02-18 06:55:00,SystemResetWarning,0830.1,5.00,000.00,018.5,018.7,000.0,027.1,020.7,10.5,0000.0,0001.79,0001.37,0001.19
2024-02-18 06:56:00,SystemResetWarning,0830.1,5.00,000.00,018.8,019.3,000.0,027.1,021.1,10.4,0000.0,0001.84,0001.37,0001.18
2024-02-18 06:57:00,SystemResetWarning,0830.0,5.00,000.00,018.9,019.2,000.0,027.1,020.9,10.7,0000.0,0001.82,0001.35,0001.16
2024-02-18 06:58:00,SystemResetWarning,0830.1,4.99,000.00,018.8,019.0,000.0,027.0,020.7,10.8,0000.0,0001.79,0001.33,0001.15
2024-02-18 06:59:00,SystemResetWarning,0830.0,5.00,000.00,018.8,018.8,000.0,027.0,020.4,10.8,0000.0,0001.75,0001.31,0001.13
